Regional Weather Roundup
Issued by NWS

Home | Current Version | Previous Version | Graphics & Text | Print | Product List | Glossary On
Versions: 1 2 3 4 5 6 7 8 9 10 11 12 13 14 15 16 17 18 19 20 21 22 23 24 25 26 27 28 29 30 31 32 33 34 35 36 37 38 39 40 41 42 43 44 45 46 47 48 49 50
000
ASUS43 KBIS 060320
RWRND

NORTH DAKOTA REGIONAL WEATHER ROUNDUP
NATIONAL WEATHER SERVICE BISMARCK ND
1000 PM CDT TUE MAY 05 2015

NOTE: "FAIR" INDICATES FEW OR NO CLOUDS BELOW 12,000 FEET WITH NO
SIGNIFICANT WEATHER AND/OR OBSTRUCTIONS TO VISIBILITY.


NDZ001>003-009>011-017-060400-
NORTHWEST NORTH DAKOTA

CITY           SKY/WX    TMP DP  RH WIND       PRES   REMARKS
WILLISTON      PTCLDY    68  49  50 S8        29.77R
MINOT          CLEAR     64  35  34 SE6       29.82S
MINOT AFB      CLEAR     58  34  40 SE10      29.81R
$$

NDZ018>021-031>035-040>046-060400-
SOUTHWEST NORTH DAKOTA

CITY           SKY/WX    TMP DP  RH WIND       PRES   REMARKS
BISMARCK       PTCLDY    61  48  62 SE6       29.85S
DICKINSON      PTCLDY    60  50  69 SE13      29.79S
GARRISON         N/A     62  44  51 S9        29.83R
HETTINGER ARPT MOCLDY    61  51  70 SE13      29.81F
$$

NDZ004>008-012>016-024-026-027-054-060400-
NORTHEAST NORTH DAKOTA

CITY           SKY/WX    TMP DP  RH WIND       PRES   REMARKS
GRAND FORKS    PTCLDY    69  47  45 S13       29.96R
GRND FRKS AFB  CLEAR     70  49  47 S15       29.95R
DEVILS LAKE    CLEAR     64  45  48 SE14      29.91R
$$

NDZ022-023-025-028>030-036>039-047>053-060400-
SOUTHEAST NORTH DAKOTA

CITY           SKY/WX    TMP DP  RH WIND       PRES   REMARKS
FARGO          PTCLDY    68  53  58 SE17G26   29.98R
JAMESTOWN      MOCLDY    67  51  56 SE16      29.92R
$$




USA.gov is the U.S. government's official web portal to all federal, state and local government web resources and services.